Preview of NWS' New Version of Forecast
This preview is not operational and should not be used for support decisions.

Regional Weather Roundup (RWR)

Issued by Melbourne, FL (MLB)

                            
472 
ASUS42 KMLB 212307
RWRMLB
HOURLY WEATHER ROUNDUP AROUND FLORIDA
NATIONAL WEATHER SERVICE OFFICE MELBOURNE FL
700 PM EDT THU JUN 21 2018
  
CITY           SKY/WX    TMP DP  RH WIND       PRES   REMARKS
MELBOURNE      FAIR      84  74  71 W3        29.91R                  
FORT PIERCE    CLOUDY    80  73  79 SW13      29.95R                  
ORLANDO INTL   CLOUDY    82  76  81 SW7       29.91R                  
DAYTONA BEACH  LGT RAIN  76  76 100 SW6       29.88S                  
VERO BEACH     PTSUNNY   83  75  77 E5        29.93R                  
$$
...ELSEWHERE ACROSS CENTRAL FLORIDA...
  
CITY           SKY/WX    TMP DP  RH WIND       PRES   REMARKS
PATRICK AFB    FAIR      82  78  85 W7        29.90R                  
KSC            FAIR      81  78  91 W6        29.90R                  
CAPE CANAVERAL FAIR      83  74  74 W6        29.89R                  
TITUSVILLE     PTSUNNY  N/A N/A N/A W8        29.91                   
ORLANDO EXEC   FAIR      82  78  88 W6        29.91R                  
LEESBURG       FAIR      82  78  88 SW5       29.90F                  
SANFORD        FAIR      79  77  94 SW8       29.90R                  
DELAND         LGT RAIN  77  75  94 W5        29.89S                  
NEW SMYRNA BCH MOSUNNY   77  73  88 W8        29.89S                  
ORMOND BEACH   LGT RAIN  75  75 100 W8        29.88S                  
WINTER HAVEN   FAIR      85  76  74 CALM      29.93R                  
KISSIMMEE      FAIR      83  76  79 W5        29.93R                  
OKEECHOBEE     RAIN      73  72  94 NW8       29.95R                  
TAMPA          PTSUNNY   86  75  70 NW10      29.91F                  
$$
...NORTHERN FLORIDA...
  
CITY           SKY/WX    TMP DP  RH WIND       PRES   REMARKS
PALM COAST     PTSUNNY   75  73  94 SW5       29.88R                  
ST AUGUSTINE   FAIR      77  74  90 SW8       29.87S                  
OCALA          FAIR      82  78  88 W7        29.89F                  
GAINESVILLE    FAIR      86  75  69 W12       29.89F                  
JACKSONVILLE   PTSUNNY   83  73  72 W6        29.85R                  
TALLAHASSEE    PTSUNNY   94  69  44 W13       29.87R HX  99           
$$
...ALONG THE SOUTHEAST COAST TO THE KEYS...
  
CITY           SKY/WX    TMP DP  RH WIND       PRES   REMARKS
STUART         TSTM      77  73  88 N6        29.96R                  
WEST PALM BCH  PTSUNNY   82  75  79 NW7       29.93R                  
MIAMI          PTSUNNY   86  76  71 SW6       29.93R THUNDER          
KEY WEST       FAIR      85  76  74 SW8       29.94S                  
$$
...MARINE REPORTS...
  
STATION/POSITION TIME  TEMP    WIND        PRES    WAVE   SWELL
                       AIR SEA DIR/SP/G            HT/PER HT/PER
                 (UTC) (F)     (DEG/KT/KT) (MB)    (FT/S) (FT/S)
ST AUGUSTINE FP  2300   77 79  240/  7/  8 1011.4F
20NM E CAPE CANA 2250   81 83  260/  8/  8 1012.5R   1/ 8
TRIDENT PIER     2248   82 83  260/  5/  7 1014.1R
SEBASTIAN INLET  2245   82 84  340/  6     1014.0R
4NM E PORT CANAV 2253      82                N/A     1
6NM NE FPR INLET 2230      82                N/A     1/ 3
SETTLEMENT PT GB 2300   85     210/ 12/ 14 1013.7R
$$